SCOUT B DEB, 2800

Orbit data source: Space-Track

SCOUT B DEB, 2800 is space debris in LEO originally from a launch on Thu, 04 Aug 1966 UTC launched from the Air Force Western Test Range (AFWTR). Debris objects in space refer to the collection of defunct objects orbiting the Earth. Examples of debris include non-operational satellites, rocket bodies, and fragments generated from explosions, collisions, or faulty payload assembly.

Loading next visibility...
Identifier
2800, 1966-070D
Orbit
LEO
Country
Flag of USUS
Related business
Manufacturer
Unknown
Mission
Spacecraft
Bus & Motor
Unknown
Mass
Unknown
Launch date (UTC)
1966-08-04 (59 years ago)
Launch vehicle
Unknown
Launch site
Air Force Western Test Range (AFWTR)
Object type
Payload
Rocket body
Debris
Shape & HBR
Unknown
Radar Cross Section
Small (<0.1 m²)

Expand to show TLE details & history
Last TLE update: 11 hours ago

TLE from 11 hours ago
0 SCOUT B DEB
1 02800U 66070D   25243.28145925  .00007350  00000-0  95764-3 0  9990
2 02800  81.4009  98.8946 1409844 326.4726  25.4326 12.38065533548812
Epoch: 2025-08-31T06:45Z
TLE epoch observation values (Epoch: 2025-08-31T06:45:18.079Z)
Latitude
0.00003°
Longitude
17.86562°
Altitude
547.963 km
Speed
8.04 km/s
True Right ascension
06h 35m 34s
True Declination
0° 00' 00"
Sunlit
Object was in daylight at epoch
Visualization orbit readout
Latitude
Unknown
Longitude
Unknown
Altitude
Unknown
Speed
Unknown
Apparent Right ascension
Unknown
Apparent Declination
Unknown
Sunlit
N/A
Visualization observer readout
Local Sidereal Time
09:08:27
Azimuth
Unknown
Elevation
Unknown
Doppler factor
Unknown
Orbital elements
Apogee altitude
2,624.543 km
Perigee altitude
399.732 km
Semi-major axis
7,890.274 km
Eccentricity
0.14098
Inclination
81.4009°
RAAN
98.8946°
Arg. of periapsis
326.4726°
True anomaly
33.64301°
Mean anomaly
25.4326°
Eccentric anomaly
29.39775°
Mean motion
3.09674 °/min
Orbital period
116.25 mins
BSTAR
0.00095764
Loading maneuver chart data...
Computing Atmospheric mass density...
Loading historical data...
Loading historical data...
Loading historical data...
Loading historical data...
Loading historical data...
Loading historical data...
Loading historical data...
Other satellites on launch #70 in the year 1966 (1966-08-04 UTC)

Documentation

Showing up to 5 results
|